Flag for U.S.A. Weather past 2 weeks in Minot, North Dakota, U.S.A.

Now
65 °F

Sunny.


Feels Like: 65 °F
Forecast: 41 / 70 °F
Wind: 7 mph from Southwest

Location: Minot International Airport

Current Time: Sep 15, 2014 at 7:54:42 PM

Latest Report: Sep 15, 2014 at 6:54 PM


Visibility: 10 mi

Pressure: 30.09 "Hg

Humidity: 31%

Dew point: 33 °F

Location of MinotLocation

Historic Weather in Minot — Graph

°F

Minot temperature yesterday

Maximum temperature yesterday: 56 °F (at 4:54 PM)
Minimum temperature yesterday: 38 °F (at 7:54 AM)
Average temperature yesterday: 46 °F

Past Weeks' High & Low Weather Summary

 TemperatureHumidityPressure
High81 °F (Sep 7, 3:54 PM)93% (Sep 4, 3:54 AM)30.52 "Hg (Sep 4, 3:54 AM)
Low38 °F (Sep 14, 7:54 AM)26% (Sep 6, 1:54 PM)29.58 "Hg (Sep 8, 3:54 AM)
Average55 °F64%30.02 "Hg
* Reported Aug 31 6:54 PM — Sep 15 6:54 PM, Minot, Weather by CustomWeather, © 2014

Note: Actual official high and low records may vary slightly from our data, if they occured in-between our weather recording intervals... More about our weather records

Advertising

Minot weather history for previous 24 hours

 ConditionsComfort  
Time TempWeatherWind HumidityBarometerVisibility
6:54 PM
Sep 15
65 °FSunny.7 mph31%30.09 "Hg10 mi
5:54 PM67 °FSunny.9 mph30%30.10 "Hg10 mi
4:54 PM67 °FSunny.8 mph27%30.11 "Hg10 mi
3:54 PM67 °FSunny.9 mph30%30.13 "Hg10 mi
2:54 PM66 °FSunny.13 mph31%30.16 "Hg10 mi
1:54 PM65 °FSunny.10 mph32%30.18 "Hg10 mi
12:54 PM64 °FSunny.15 mph34%30.19 "Hg10 mi
11:54 AM62 °FSunny.13 mph37%30.21 "Hg10 mi
10:54 AM58 °FSunny.17 mph41%30.22 "Hg10 mi
9:54 AM54 °FSunny.9 mph51%30.23 "Hg10 mi
8:54 AM48 °FSunny.10 mph63%30.23 "Hg10 mi
7:54 AM45 °FClear.13 mph71%30.23 "Hg10 mi
6:54 AM44 °FClear.8 mph73%30.22 "Hg10 mi
5:54 AM46 °FOvercast.8 mph71%30.21 "Hg10 mi
4:54 AM46 °FOvercast.8 mph66%30.22 "Hg10 mi
3:54 AM45 °FOvercast.8 mph65%30.22 "Hg10 mi
2:54 AM42 °FOvercast.8 mph71%30.22 "Hg10 mi
1:54 AM38 °FClear.8 mph79%30.23 "Hg10 mi
12:54 AM40 °FClear.9 mph77%30.23 "Hg10 mi
11:54 PM
Sep 14
40 °FClear.6 mph77%30.23 "Hg10 mi
10:54 PM42 °FClear.7 mph76%30.22 "Hg10 mi
9:54 PM43 °FClear.7 mph76%30.21 "Hg10 mi
8:54 PM44 °FSunny.No wind68%30.20 "Hg10 mi
7:54 PM50 °FPartly sunny.No wind61%30.19 "Hg10 mi
Weather by CustomWeather, © 2014

See weather overviewHow to use our weather pages